QPF
0.02 0.01 0.01 0.01 0.00 0.00 0.01 0.01 0.01 0.01 0.01 0.01 0.01 0.01 0.01 0.01 0.01 0.01 0.01 0.01 0.02 0.03 0.04 0.04 0.03 0.04 0.03 0.03 0.03 0.03 0.03 0.03 0.03 0.03 0.02 0.02 0.02 0.02 0.03 0.05 0.04 0.02 0.02
0.02 0.01 0.01 0.01 0.01 0.01 0.01 0.01 0.01 0.01 0.01 0.01 0.01 0.01 0.01 0.01 0.01 0.01 0.01 0.01 0.01 0.02 0.03 0.04 0.04 0.04 0.04 0.03 0.03 0.03 0.03 0.03 0.03 0.02 0.02 0.02 0.02 0.02 0.02 0.03 0.03 0.03 0.02
0.03 0.01 0.01 0.01 0.02 0.02 0.02 0.01 0.01 0.01 0.01 0.01 0.01 0.01 0.01 0.01 0.01 0.01 0.01 0.01 0.00 0.01 0.02 0.03 0.05 0.05 0.04 0.04 0.03 0.03 0.03 0.03 0.02 0.02 0.02 0.02 0.02 0.02 0.02 0.03 0.04 0.03 0.03
0.04 0.02 0.01 0.01 0.01 0.01 0.02 0.02 0.02 0.02 0.01 0.01 0.01 0.01 0.01 0.01 0.01 0.01 0.01 0.01 0.00 0.00 0.00 0.01 0.02 0.04 0.05 0.05 0.04 0.03 0.03 0.03 0.03 0.02 0.02 0.02 0.03 0.03 0.02 0.03 0.03 0.04 0.03
0.05 0.04 0.02 0.01 0.01 0.02 0.02 0.02 0.02 0.02 0.02 0.02 0.02 0.01 0.01 0.02 0.01 0.01 0.01 0.01 0.01 0.00 0.00 0.00 0.01 0.02 0.03 0.04 0.04 0.04 0.04 0.04 0.04 0.03 0.03 0.02 0.03 0.03 0.03 0.02 0.03 0.04 0.04
0.05 0.05 0.03 0.01 0.01 0.02 0.02 0.02 0.02 0.03 0.03 0.03 0.02 0.01 0.01 0.02 0.02 0.02 0.01 0.01 0.01 0.01 0.01 0.00 0.01 0.01 0.02 0.02 0.04 0.04 0.05 0.05 0.04 0.04 0.04 0.03 0.03 0.04 0.04 0.03 0.03 0.03 0.04
0.06 0.05 0.05 0.03 0.02 0.02 0.02 0.02 0.02 0.03 0.03 0.04 0.03 0.03 0.03 0.03 0.03 0.02 0.02 0.02 0.02 0.01 0.01 0.01 0.01 0.01 0.02 0.02 0.03 0.04 0.05 0.06 0.05 0.04 0.04 0.04 0.03 0.04 0.05 0.04 0.03 0.03 0.03
0.09 0.06 0.04 0.05 0.03 0.02 0.01 0.02 0.02 0.03 0.03 0.04 0.05 0.04 0.05 0.05 0.04 0.04 0.03 0.02 0.02 0.02 0.02 0.02 0.01 0.02 0.02 0.01 0.01 0.03 0.04 0.06 0.05 0.05 0.04 0.04 0.04 0.04 0.05 0.06 0.05 0.04 0.03
0.13 0.10 0.06 0.04 0.04 0.02 0.01 0.02 0.02 0.03 0.03 0.03 0.04 0.05 0.05 0.05 0.05 0.05 0.04 0.03 0.03 0.03 0.03 0.02 0.02 0.02 0.01 0.01 0.01 0.02 0.02 0.03 0.04 0.05 0.05 0.04 0.05 0.07 0.06 0.06 0.06 0.05 0.04
0.13 0.13 0.10 0.05 0.04 0.03 0.02 0.01 0.02 0.02 0.02 0.02 0.03 0.04 0.05 0.05 0.05 0.05 0.04 0.04 0.04 0.04 0.04 0.04 0.03 0.02 0.02 0.01 0.01 0.02 0.02 0.01 0.02 0.03 0.05 0.05 0.05 0.07 0.09 0.08 0.07 0.06 0.05
0.12 0.14 0.15 0.10 0.05 0.05 0.03 0.02 0.02 0.02 0.02 0.02 0.03 0.03 0.04 0.04 0.04 0.04 0.04 0.04 0.04 0.04 0.04 0.04 0.03 0.03 0.02 0.02 0.01 0.02 0.02 0.01 0.01 0.02 0.03 0.04 0.05 0.05 0.06 0.08 0.09 0.08 0.07
0.10 0.13 0.18 0.16 0.10 0.06 0.05 0.03 0.03 0.03 0.03 0.03 0.03 0.03 0.03 0.04 0.04 0.04 0.04 0.03 0.03 0.03 0.04 0.04 0.04 0.04 0.04 0.02 0.02 0.02 0.02 0.01 0.01 0.02 0.02 0.03 0.03 0.04 0.05 0.06 0.06 0.07 0.07
0.06 0.08 0.14 0.19 0.17 0.10 0.06 0.04 0.03 0.03 0.03 0.04 0.04 0.04 0.04 0.04 0.04 0.04 0.04 0.04 0.03 0.03 0.03 0.04 0.04 0.05 0.05 0.04 0.04 0.04 0.03 0.02 0.02 0.03 0.04 0.03 0.02 0.03 0.05 0.07 0.06 0.06 0.06
0.05 0.07 0.09 0.14 0.19 0.15 0.09 0.06 0.06 0.05 0.03 0.03 0.04 0.04 0.04 0.04 0.04 0.04 0.04 0.05 0.04 0.03 0.03 0.03 0.03 0.04 0.05 0.05 0.05 0.05 0.03 0.04 0.04 0.04 0.04 0.03 0.03 0.03 0.03 0.04 0.05 0.06 0.07
0.03 0.05 0.07 0.10 0.15 0.18 0.13 0.09 0.08 0.08 0.05 0.04 0.03 0.04 0.04 0.04 0.03 0.03 0.03 0.04 0.04 0.04 0.03 0.03 0.03 0.03 0.04 0.05 0.06 0.05 0.04 0.04 0.04 0.04 0.03 0.03 0.03 0.03 0.03 0.03 0.03 0.04 0.07
0.04 0.04 0.05 0.06 0.09 0.14 0.14 0.11 0.10 0.10 0.09 0.05 0.04 0.03 0.03 0.03 0.03 0.03 0.03 0.03 0.03 0.04 0.03 0.02 0.03 0.03 0.04 0.04 0.05 0.05 0.04 0.05 0.04 0.04 0.03 0.03 0.03 0.03 0.04 0.04 0.03 0.04 0.06
0.04 0.04 0.04 0.05 0.06 0.08 0.10 0.10 0.10 0.11 0.12 0.09 0.05 0.03 0.03 0.03 0.03 0.03 0.03 0.03 0.04 0.04 0.04 0.03 0.02 0.03 0.04 0.04 0.04 0.04 0.04 0.03 0.03 0.03 0.03 0.02 0.02 0.02 0.03 0.04 0.04 0.04 0.06
0.03 0.04 0.04 0.05 0.05 0.05 0.06 0.06 0.08 0.09 0.11 0.12 0.08 0.04 0.03 0.03 0.03 0.04 0.04 0.04 0.03 0.04 0.04 0.04 0.03 0.02 0.02 0.03 0.03 0.03 0.03 0.02 0.02 0.02 0.02 0.01 0.01 0.02 0.02 0.03 0.03 0.03 0.05
0.03 0.03 0.03 0.05 0.06 0.05 0.05 0.05 0.05 0.06 0.07 0.09 0.09 0.07 0.04 0.02 0.02 0.03 0.03 0.04 0.04 0.04 0.04 0.04 0.03 0.03 0.02 0.02 0.02 0.02 0.02 0.01 0.01 0.01 0.01 0.01 0.01 0.01 0.02 0.02 0.02 0.03 0.04
0.02 0.03 0.04 0.04 0.04 0.05 0.05 0.05 0.05 0.05 0.05 0.05 0.06 0.06 0.06 0.04 0.03 0.02 0.02 0.03 0.03 0.03 0.03 0.03 0.03 0.03 0.02 0.02 0.02 0.02 0.02 0.01 0.01 0.01 0.01 0.01 0.01 0.01 0.01 0.02 0.02 0.02 0.03
0.01 0.01 0.03 0.04 0.04 0.04 0.04 0.05 0.04 0.04 0.04 0.05 0.04 0.04 0.04 0.05 0.04 0.03 0.03 0.02 0.03 0.03 0.03 0.03 0.03 0.02 0.02 0.01 0.01 0.01 0.01 0.01 0.01 0.01 0.01 0.01 0.01 0.01 0.01 0.01 0.02 0.02 0.03
0.01 0.01 0.01 0.02 0.03 0.03 0.03 0.03 0.03 0.02 0.03 0.03 0.04 0.03 0.03 0.03 0.04 0.04 0.04 0.03 0.03 0.03 0.02 0.03 0.02 0.02 0.01 0.01 0.01 0.01 0.01 0.01 0.01 0.01 0.01 0.01 0.01 0.01 0.01 0.01 0.01 0.02 0.02
0.01 0.00 0.00 0.01 0.01 0.01 0.02 0.01 0.02 0.02 0.02 0.03 0.03 0.03 0.03 0.03 0.03 0.03 0.03 0.03 0.03 0.03 0.03 0.02 0.02 0.02 0.01 0.01 0.02 0.02 0.02 0.02 0.01 0.01 0.01 0.01 0.01 0.01 0.01 0.01 0.01 0.02 0.02
0.01 0.00 0.00 0.01 0.01 0.01 0.01 0.01 0.02 0.02 0.02 0.02 0.03 0.03 0.02 0.02 0.02 0.02 0.03 0.02 0.02 0.03 0.03 0.02 0.02 0.01 0.01 0.02 0.02 0.02 0.02 0.02 0.02 0.01 0.01 0.02 0.01 0.01 0.01 0.01 0.01 0.02 0.02
0.01 0.01 0.01 0.01 0.01 0.01 0.01 0.02 0.03 0.03 0.03 0.02 0.02 0.02 0.02 0.02 0.02 0.02 0.03 0.02 0.02 0.02 0.02 0.02 0.02 0.02 0.02 0.02 0.02 0.03 0.02 0.02 0.02 0.01 0.01 0.01 0.01 0.01 0.01 0.01 0.01 0.02 0.02
0.01 0.01 0.01 0.01 0.01 0.01 0.02 0.03 0.03 0.04 0.03 0.03 0.03 0.03 0.02 0.03 0.03 0.03 0.02 0.02 0.02 0.02 0.02 0.02 0.02 0.02 0.02 0.02 0.02 0.02 0.02 0.02 0.02 0.02 0.01 0.01 0.01 0.01 0.01 0.01 0.01 0.01 0.02
MSLP
1029.95 1030.01 1029.98 1029.85 1029.66 1029.44 1029.22 1029.04 1028.91 1028.86 1028.86 1028.89 1028.94 1028.97 1028.97 1028.92 1028.82 1028.65 1028.43 1028.16 1027.85 1027.51 1027.15 1026.79 1026.44 1026.14 1025.88 1025.68 1025.53 1025.42 1025.33 1025.23 1025.12 1024.96 1024.77 1024.53 1024.27 1023.99 1023.72 1023.44 1023.18 1022.91 1022.63
1029.94 1030.00 1030.00 1029.92 1029.79 1029.64 1029.49 1029.38 1029.30 1029.29 1029.32 1029.39 1029.47 1029.54 1029.58 1029.58 1029.53 1029.42 1029.26 1029.03 1028.74 1028.40 1028.02 1027.61 1027.22 1026.84 1026.52 1026.25 1026.04 1025.87 1025.74 1025.63 1025.50 1025.34 1025.16 1024.93 1024.69 1024.43 1024.16 1023.90 1023.65 1023.40 1023.15
1029.84 1029.91 1029.94 1029.92 1029.86 1029.79 1029.73 1029.69 1029.69 1029.72 1029.79 1029.88 1029.98 1030.07 1030.14 1030.18 1030.17 1030.11 1029.99 1029.81 1029.56 1029.24 1028.87 1028.46 1028.04 1027.62 1027.24 1026.90 1026.62 1026.39 1026.20 1026.03 1025.87 1025.69 1025.49 1025.27 1025.03 1024.78 1024.53 1024.29 1024.06 1023.83 1023.60
1029.74 1029.83 1029.88 1029.92 1029.94 1029.95 1029.97 1030.01 1030.07 1030.15 1030.25 1030.35 1030.46 1030.55 1030.63 1030.69 1030.71 1030.70 1030.63 1030.50 1030.30 1030.03 1029.70 1029.32 1028.90 1028.46 1028.04 1027.65 1027.30 1026.99 1026.72 1026.48 1026.25 1026.02 1025.79 1025.55 1025.31 1025.06 1024.82 1024.59 1024.38 1024.17 1023.97
1029.70 1029.80 1029.89 1029.98 1030.06 1030.14 1030.23 1030.33 1030.44 1030.55 1030.66 1030.77 1030.87 1030.96 1031.04 1031.11 1031.15 1031.17 1031.15 1031.08 1030.95 1030.75 1030.48 1030.15 1029.76 1029.34 1028.90 1028.47 1028.05 1027.66 1027.30 1026.97 1026.66 1026.36 1026.08 1025.80 1025.54 1025.29 1025.05 1024.83 1024.62 1024.43 1024.24
1029.74 1029.86 1029.98 1030.10 1030.22 1030.35 1030.49 1030.62 1030.75 1030.88 1030.99 1031.10 1031.19 1031.27 1031.35 1031.42 1031.48 1031.53 1031.55 1031.54 1031.49 1031.37 1031.18 1030.92 1030.59 1030.20 1029.78 1029.32 1028.85 1028.39 1027.94 1027.51 1027.10 1026.72 1026.37 1026.05 1025.75 1025.48 1025.24 1025.02 1024.81 1024.62 1024.44
1029.81 1029.96 1030.10 1030.25 1030.40 1030.54 1030.69 1030.83 1030.97 1031.09 1031.20 1031.30 1031.38 1031.46 1031.54 1031.62 1031.70 1031.78 1031.85 1031.90 1031.91 1031.87 1031.76 1031.58 1031.33 1031.00 1030.60 1030.14 1029.64 1029.12 1028.59 1028.07 1027.57 1027.11 1026.69 1026.31 1025.98 1025.69 1025.43 1025.20 1024.99 1024.79 1024.60
1029.86 1030.04 1030.21 1030.37 1030.52 1030.67 1030.81 1030.94 1031.06 1031.17 1031.27 1031.37 1031.46 1031.55 1031.64 1031.74 1031.84 1031.95 1032.05 1032.14 1032.21 1032.23 1032.20 1032.10 1031.92 1031.65 1031.30 1030.86 1030.36 1029.80 1029.21 1028.62 1028.05 1027.52 1027.03 1026.61 1026.24 1025.93 1025.66 1025.42 1025.20 1024.99 1024.77
1029.79 1030.01 1030.21 1030.39 1030.55 1030.69 1030.82 1030.93 1031.03 1031.13 1031.23 1031.33 1031.43 1031.54 1031.66 1031.79 1031.92 1032.04 1032.17 1032.29 1032.39 1032.45 1032.48 1032.44 1032.33 1032.12 1031.82 1031.42 1030.94 1030.37 1029.76 1029.13 1028.51 1027.93 1027.41 1026.95 1026.56 1026.23 1025.95 1025.70 1025.47 1025.23 1024.98
1029.55 1029.83 1030.07 1030.28 1030.46 1030.61 1030.73 1030.83 1030.92 1031.02 1031.12 1031.23 1031.36 1031.51 1031.66 1031.81 1031.96 1032.10 1032.23 1032.35 1032.46 1032.54 1032.59 1032.60 1032.54 1032.39 1032.15 1031.80 1031.35 1030.81 1030.21 1029.57 1028.94 1028.33 1027.79 1027.32 1026.92 1026.59 1026.30 1026.04 1025.79 1025.53 1025.25
1029.11 1029.46 1029.77 1030.04 1030.26 1030.43 1030.57 1030.68 1030.78 1030.88 1030.99 1031.13 1031.30 1031.47 1031.65 1031.83 1031.99 1032.13 1032.26 1032.36 1032.45 1032.53 1032.58 1032.61 1032.58 1032.49 1032.30 1032.02 1031.62 1031.12 1030.55 1029.93 1029.30 1028.70 1028.16 1027.69 1027.30 1026.97 1026.68 1026.41 1026.15 1025.86 1025.54
1028.48 1028.92 1029.33 1029.68 1029.97 1030.20 1030.38 1030.52 1030.64 1030.76 1030.90 1031.07 1031.26 1031.47 1031.68 1031.87 1032.03 1032.16 1032.26 1032.34 1032.39 1032.44 1032.49 1032.52 1032.52 1032.46 1032.33 1032.10 1031.76 1031.32 1030.79 1030.20 1029.60 1029.02 1028.49 1028.03 1027.64 1027.32 1027.03 1026.76 1026.48 1026.17 1025.83
1027.73 1028.28 1028.79 1029.24 1029.63 1029.94 1030.18 1030.37 1030.52 1030.67 1030.84 1031.04 1031.26 1031.49 1031.72 1031.92 1032.08 1032.19 1032.26 1032.30 1032.32 1032.34 1032.36 1032.39 1032.40 1032.37 1032.28 1032.10 1031.82 1031.43 1030.94 1030.40 1029.82 1029.26 1028.74 1028.29 1027.91 1027.59 1027.31 1027.04 1026.75 1026.42 1026.05
1026.93 1027.57 1028.20 1028.77 1029.26 1029.66 1029.97 1030.22 1030.42 1030.61 1030.81 1031.02 1031.26 1031.51 1031.75 1031.95 1032.11 1032.21 1032.25 1032.26 1032.25 1032.25 1032.25 1032.27 1032.29 1032.28 1032.22 1032.08 1031.84 1031.48 1031.03 1030.51 1029.96 1029.41 1028.90 1028.45 1028.07 1027.75 1027.46 1027.18 1026.89 1026.55 1026.16
1026.14 1026.87 1027.59 1028.27 1028.86 1029.35 1029.74 1030.05 1030.29 1030.51 1030.74 1030.97 1031.22 1031.48 1031.73 1031.94 1032.09 1032.19 1032.22 1032.22 1032.19 1032.17 1032.17 1032.18 1032.20 1032.21 1032.17 1032.05 1031.83 1031.50 1031.06 1030.55 1030.01 1029.46 1028.94 1028.49 1028.10 1027.77 1027.47 1027.18 1026.88 1026.53 1026.14
1025.41 1026.20 1026.99 1027.74 1028.41 1028.97 1029.43 1029.79 1030.08 1030.34 1030.58 1030.83 1031.10 1031.37 1031.63 1031.85 1032.01 1032.11 1032.15 1032.15 1032.13 1032.10 1032.10 1032.11 1032.14 1032.15 1032.11 1032.00 1031.78 1031.46 1031.03 1030.52 1029.96 1029.40 1028.87 1028.40 1028.00 1027.65 1027.34 1027.05 1026.73 1026.38 1025.98
1024.74 1025.56 1026.39 1027.18 1027.90 1028.51 1029.01 1029.42 1029.74 1030.02 1030.29 1030.56 1030.85 1031.14 1031.41 1031.65 1031.84 1031.96 1032.02 1032.03 1032.02 1032.01 1032.01 1032.02 1032.05 1032.05 1032.01 1031.90 1031.68 1031.34 1030.90 1030.38 1029.82 1029.24 1028.70 1028.21 1027.79 1027.43 1027.11 1026.80 1026.48 1026.12 1025.71
1024.12 1024.93 1025.76 1026.56 1027.30 1027.94 1028.47 1028.91 1029.26 1029.58 1029.87 1030.17 1030.48 1030.79 1031.09 1031.36 1031.57 1031.71 1031.80 1031.83 1031.84 1031.83 1031.84 1031.86 1031.87 1031.87 1031.82 1031.70 1031.47 1031.13 1030.69 1030.16 1029.59 1029.01 1028.46 1027.97 1027.54 1027.16 1026.83 1026.51 1026.17 1025.80 1025.38
1023.52 1024.30 1025.11 1025.90 1026.63 1027.28 1027.83 1028.28 1028.67 1029.02 1029.35 1029.68 1030.02 1030.36 1030.69 1030.98 1031.22 1031.38 1031.49 1031.53 1031.55 1031.55 1031.55 1031.56 1031.57 1031.56 1031.50 1031.36 1031.14 1030.80 1030.37 1029.86 1029.31 1028.74 1028.20 1027.71 1027.27 1026.89 1026.55 1026.21 1025.85 1025.46 1025.03
1022.92 1023.66 1024.44 1025.20 1025.92 1026.56 1027.12 1027.60 1028.02 1028.40 1028.77 1029.14 1029.51 1029.89 1030.24 1030.55 1030.80 1030.97 1031.08 1031.13 1031.14 1031.13 1031.12 1031.12 1031.11 1031.09 1031.03 1030.90 1030.69 1030.38 1029.98 1029.51 1028.99 1028.46 1027.94 1027.47 1027.04 1026.66 1026.30 1025.94 1025.55 1025.13 1024.67
1022.30 1023.02 1023.77 1024.51 1025.21 1025.85 1026.42 1026.92 1027.36 1027.78 1028.18 1028.59 1028.99 1029.39 1029.76 1030.08 1030.33 1030.50 1030.60 1030.63 1030.62 1030.59 1030.56 1030.54 1030.52 1030.50 1030.45 1030.34 1030.16 1029.90 1029.55 1029.14 1028.68 1028.20 1027.72 1027.27 1026.86 1026.47 1026.09 1025.70 1025.28 1024.82 1024.31
1021.68 1022.40 1023.13 1023.86 1024.56 1025.19 1025.77 1026.28 1026.75 1027.19 1027.63 1028.06 1028.49 1028.90 1029.27 1029.58 1029.82 1029.97 1030.05 1030.05 1030.02 1029.97 1029.91 1029.88 1029.86 1029.84 1029.81 1029.74 1029.61 1029.41 1029.14 1028.80 1028.40 1027.98 1027.55 1027.12 1026.71 1026.31 1025.90 1025.48 1025.01 1024.50 1023.94
1021.09 1021.81 1022.55 1023.28 1023.98 1024.61 1025.19 1025.71 1026.19 1026.65 1027.10 1027.55 1027.98 1028.39 1028.76 1029.06 1029.28 1029.41 1029.45 1029.44 1029.38 1029.31 1029.24 1029.20 1029.19 1029.20 1029.20 1029.18 1029.11 1028.98 1028.78 1028.51 1028.18 1027.81 1027.41 1027.00 1026.59 1026.16 1025.71 1025.24 1024.72 1024.15 1023.53
1020.52 1021.28 1022.04 1022.77 1023.46 1024.09 1024.66 1025.18 1025.66 1026.12 1026.58 1027.02 1027.45 1027.85 1028.21 1028.49 1028.70 1028.81 1028.84 1028.82 1028.75 1028.68 1028.62 1028.59 1028.60 1028.64 1028.68 1028.71 1028.70 1028.63 1028.49 1028.28 1028.00 1027.66 1027.28 1026.87 1026.43 1025.97 1025.48 1024.95 1024.37 1023.75 1023.08
1020.00 1020.78 1021.56 1022.30 1022.98 1023.60 1024.15 1024.65 1025.11 1025.56 1025.99 1026.43 1026.85 1027.25 1027.60 1027.88 1028.08 1028.20 1028.25 1028.23 1028.19 1028.14 1028.10 1028.11 1028.15 1028.22 1028.30 1028.37 1028.41 1028.38 1028.28 1028.10 1027.83 1027.51 1027.12 1026.69 1026.22 1025.71 1025.17 1024.59 1023.96 1023.29 1022.59
1019.49 1020.30 1021.08 1021.81 1022.48 1023.06 1023.58 1024.05 1024.48 1024.91 1025.33 1025.75 1026.17 1026.57 1026.93 1027.23 1027.46 1027.61 1027.70 1027.72 1027.72 1027.72 1027.73 1027.77 1027.85 1027.95 1028.06 1028.16 1028.21 1028.19 1028.10 1027.92 1027.65 1027.30 1026.89 1026.43 1025.92 1025.37 1024.78 1024.16 1023.50 1022.80 1022.07
Thickness
5591 5591 5591 5592 5592 5593 5593 5594 5595 5597 5599 5600 5601 5602 5603 5605 5606 5608 5610 5612 5614 5616 5617 5619 5620 5621 5622 5623 5623 5623 5624 5624 5624 5625 5625 5626 5627 5628 5629 5628 5629 5629 5629
5582 5582 5582 5582 5582 5583 5584 5585 5585 5587 5588 5589 5591 5592 5593 5594 5596 5598 5600 5602 5604 5606 5608 5610 5611 5612 5613 5615 5615 5616 5616 5616 5617 5617 5617 5618 5619 5620 5621 5622 5621 5621 5622
5573 5573 5573 5572 5573 5574 5574 5575 5575 5576 5578 5579 5580 5581 5582 5584 5586 5588 5590 5592 5594 5595 5598 5600 5602 5603 5604 5606 5606 5607 5608 5608 5608 5609 5609 5610 5611 5612 5613 5614 5614 5614 5615
5563 5563 5563 5563 5563 5564 5564 5564 5565 5565 5566 5568 5569 5570 5572 5574 5576 5577 5579 5581 5583 5584 5586 5589 5591 5593 5594 5596 5597 5598 5599 5599 5600 5601 5601 5602 5603 5604 5605 5606 5607 5607 5607
5552 5553 5553 5553 5553 5553 5553 5554 5554 5555 5554 5556 5557 5559 5561 5562 5564 5567 5569 5570 5572 5573 5575 5577 5580 5582 5584 5586 5587 5588 5589 5590 5591 5592 5593 5593 5594 5595 5597 5598 5598 5599 5599
5542 5542 5542 5543 5543 5543 5543 5543 5543 5543 5543 5545 5547 5547 5549 5550 5552 5555 5557 5559 5560 5562 5564 5566 5568 5571 5573 5575 5576 5578 5579 5580 5581 5582 5583 5584 5585 5586 5587 5589 5590 5590 5591
5531 5531 5531 5531 5532 5533 5533 5533 5533 5532 5532 5533 5535 5535 5537 5539 5541 5543 5545 5547 5549 5550 5552 5554 5556 5559 5560 5563 5565 5567 5569 5570 5571 5573 5573 5575 5576 5577 5578 5579 5580 5581 5582
5519 5520 5520 5520 5520 5521 5521 5522 5522 5521 5520 5521 5523 5524 5525 5527 5529 5531 5533 5535 5536 5538 5540 5542 5544 5546 5548 5551 5553 5555 5557 5559 5561 5562 5563 5565 5566 5567 5568 5569 5570 5571 5572
5506 5507 5508 5508 5509 5510 5510 5511 5511 5512 5510 5509 5511 5513 5515 5518 5516 5517 5519 5521 5523 5525 5527 5530 5532 5534 5536 5539 5541 5543 5545 5547 5550 5551 5553 5554 5555 5557 5558 5559 5560 5561 5562
5493 5494 5495 5496 5496 5497 5498 5498 5499 5500 5500 5499 5498 5499 5501 5503 5503 5505 5506 5507 5510 5512 5514 5516 5518 5521 5523 5526 5528 5530 5532 5535 5537 5539 5541 5542 5544 5545 5547 5547 5549 5550 5551
5479 5480 5481 5483 5483 5484 5485 5485 5486 5487 5488 5489 5488 5487 5487 5488 5490 5493 5495 5495 5496 5498 5501 5502 5504 5507 5509 5512 5515 5517 5519 5522 5524 5526 5528 5530 5532 5533 5534 5536 5537 5538 5538
5466 5467 5468 5469 5470 5471 5471 5472 5473 5474 5475 5476 5476 5477 5478 5478 5478 5479 5481 5482 5482 5484 5487 5489 5491 5493 5496 5498 5502 5504 5506 5508 5510 5513 5515 5517 5519 5520 5522 5523 5525 5525 5526
5452 5454 5455 5455 5456 5457 5458 5458 5459 5460 5462 5463 5464 5465 5466 5467 5467 5468 5469 5468 5468 5470 5472 5475 5477 5480 5482 5485 5488 5490 5491 5494 5496 5498 5501 5503 5504 5506 5508 5509 5511 5512 5513
5440 5441 5442 5442 5443 5444 5445 5445 5446 5447 5448 5449 5451 5452 5453 5454 5455 5456 5457 5456 5455 5455 5458 5462 5464 5467 5469 5471 5474 5476 5477 5479 5481 5483 5486 5487 5489 5490 5493 5495 5496 5498 5500
5427 5427 5428 5428 5429 5429 5430 5432 5432 5433 5434 5436 5437 5439 5440 5441 5441 5443 5444 5445 5445 5445 5448 5449 5450 5453 5455 5457 5459 5461 5463 5464 5466 5468 5470 5472 5473 5475 5477 5479 5481 5483 5485
5413 5414 5414 5414 5415 5415 5416 5418 5419 5420 5420 5422 5423 5424 5425 5427 5428 5429 5430 5431 5432 5434 5435 5436 5436 5439 5441 5443 5445 5447 5448 5450 5451 5453 5455 5456 5458 5460 5463 5465 5466 5468 5470
5400 5401 5401 5401 5401 5402 5403 5404 5406 5406 5407 5408 5410 5411 5411 5412 5414 5415 5416 5417 5418 5419 5420 5421 5423 5424 5426 5428 5429 5432 5434 5435 5436 5438 5440 5442 5443 5445 5448 5450 5452 5453 5455
5386 5387 5387 5388 5388 5389 5390 5390 5392 5393 5394 5395 5396 5397 5398 5399 5400 5401 5402 5403 5404 5406 5407 5407 5408 5409 5411 5413 5414 5416 5418 5420 5422 5423 5425 5427 5428 5430 5432 5435 5437 5439 5440
5372 5372 5373 5374 5374 5375 5376 5378 5378 5380 5381 5382 5383 5384 5385 5385 5386 5387 5388 5389 5390 5391 5392 5393 5394 5395 5396 5397 5399 5400 5402 5404 5406 5408 5410 5412 5414 5415 5417 5420 5422 5424 5425
5358 5359 5359 5360 5360 5362 5363 5364 5365 5366 5367 5368 5369 5370 5371 5372 5373 5373 5374 5375 5376 5376 5377 5378 5379 5380 5381 5382 5383 5384 5387 5388 5390 5393 5394 5397 5399 5400 5403 5405 5407 5409 5410
5344 5345 5346 5346 5346 5348 5350 5351 5352 5352 5353 5354 5356 5357 5358 5359 5360 5361 5362 5362 5362 5362 5363 5363 5365 5366 5366 5367 5368 5370 5371 5373 5375 5377 5379 5381 5383 5386 5388 5389 5391 5393 5395
5331 5331 5332 5332 5333 5335 5337 5339 5339 5339 5340 5341 5343 5343 5344 5345 5346 5348 5349 5350 5350 5350 5350 5350 5351 5352 5354 5353 5354 5355 5355 5357 5360 5363 5363 5365 5367 5370 5372 5374 5376 5378 5379
5317 5318 5319 5319 5320 5321 5323 5325 5326 5326 5327 5328 5329 5330 5331 5332 5333 5333 5335 5337 5337 5338 5339 5338 5338 5339 5339 5340 5339 5340 5340 5342 5345 5347 5346 5350 5352 5354 5356 5358 5359 5361 5363
5303 5304 5305 5306 5307 5308 5310 5311 5312 5312 5313 5314 5315 5316 5317 5319 5320 5320 5321 5322 5323 5323 5324 5325 5325 5326 5325 5325 5325 5325 5325 5326 5328 5329 5330 5333 5336 5338 5340 5342 5343 5345 5346
5290 5291 5292 5293 5294 5295 5296 5298 5298 5298 5300 5301 5302 5303 5304 5306 5307 5308 5308 5309 5310 5310 5309 5310 5310 5310 5310 5310 5309 5309 5309 5309 5312 5315 5314 5316 5319 5320 5323 5326 5327 5329 5330
5278 5278 5279 5279 5280 5281 5283 5285 5286 5286 5287 5289 5290 5291 5293 5294 5295 5295 5295 5296 5297 5297 5295 5295 5294 5295 5295 5295 5295 5295 5295 5294 5295 5298 5300 5299 5301 5300 5305 5310 5311 5312 5314